Simultaneous Nadir Overpasses (SNOs) Predictions

Prediction of SNOs between LANDSAT-8 and NOAA-19 Satellite Orbit:

Table of predicted SNOs for the next 14.0 days since TLE Epoch: 12/31/2016
Index Date (LANDSAT-8) Time (LANDSAT-8) Lat,Lon (LANDSAT-8) SZA (LANDSAT-8 ) Date (NOAA-19) Time (NOAA-19) Lat,Lon (NOAA-19) SZA (NOAA-19 ) Distance(km) Time Diff (sec)
1 01/02/2017 02:24:58 -75.57, -29.25 81.54 01/02/2017 02:23:59 -75.59, -29.31 81.52 2.85 59
2 01/02/2017 03:14:25 75.50, 138.20 98.39 01/02/2017 03:14:54 75.50, 138.26 98.39 1.60 29
3 01/04/2017 07:58:41 75.56, 67.30 98.23 01/04/2017 07:57:50 75.58, 67.33 98.24 2.10 51
4 01/04/2017 08:48:09 -75.54,-125.13 81.81 01/04/2017 08:48:54 -75.52,-125.27 81.81 3.94 45
5 01/06/2017 13:32:25 -75.60, 163.96 82.00 01/06/2017 13:31:50 -75.59, 163.84 82.01 3.40 35
6 01/06/2017 14:21:52 75.52, -28.61 97.92 01/06/2017 14:22:45 75.53, -28.68 97.93 2.08 53
7 01/08/2017 19:06:08 75.58, -99.53 97.68 01/08/2017 19:05:40 75.56, -99.46 97.67 2.40 28
8 01/08/2017 19:55:37 -75.51, 67.91 82.40 01/08/2017 19:56:44 -75.49, 68.00 82.41 3.21 67
9 01/11/2017 00:39:53 -75.56, -3.01 82.68 01/11/2017 00:39:40 -75.56, -2.92 82.67 2.53 13
10 01/11/2017 01:29:21 75.43, 164.27 97.19 01/11/2017 01:30:33 75.42, 164.82 97.20 15.29 72
11 01/13/2017 06:13:35 75.58, 93.62 96.98 01/13/2017 06:13:31 75.60, 93.57 97.00 2.45 4
